Terug naar catalogus

PEGASUS DEB

ActiefPO
NORAD 39309·DEBRIS·🇺🇸 United States

Gelanceerd May 19, 1994 vanaf Vandenberg Space Force Base

Loading…

Volgende Passages (komende 24 uur)

TLE

VerouderdSource: Space-Track

Epoch: Aug 25, 2026, 04:04 UTC

1 39309U 94029AEU 26237.16970772  .00003797  00000-0  72605-3 0  9996
2 39309  81.7415 187.5329 0230145 346.3110  13.1905 14.48088641747652

Volg PEGASUS DEB in realtime met AllMySat

Download on the App Store